Flag for Germany Weather past 2 weeks in Herten, North Rhine-Westphalia, Germany

Now
87 °F

Sunny.


Feels Like: 87 °F
Forecast: 70 / 87 °F
Wind: 5 mph from South

Location: Essen

Current Time: Jul 2, 2015 at 10:19:07 AM

Latest Report: Jul 2, 2015 at 10:00 AM


Visibility: 17 mi

Pressure: 30.05 "Hg

Humidity: 43%

Dew point: 62 °F

Location of HertenLocation

Historic Weather in Herten — Graph

°F

Herten temperature yesterday

Maximum temperature yesterday: 91 °F (at 5:00 PM)
Minimum temperature yesterday: 65 °F (at 6:00 AM)
Average temperature yesterday: 79 °F

Past Weeks' High & Low Weather Summary

 TemperatureHumidityPressure
High91 °F (Jul 1, 5:00 PM)100% (Jun 18, 2:00 AM)30.26 "Hg (Jun 18, 2:00 AM)
Low48 °F (Jun 23, 5:00 AM)24% (Jul 1, 5:00 PM)29.71 "Hg (Jun 22, 9:00 PM)
Average63 °F71%30.07 "Hg
* Reported Jun 17 12:00 Noon — Jul 2 9:00 AM, Herten, Weather by CustomWeather, © 2015

Note: Actual official high and low records may vary slightly from our data, if they occured in-between our weather recording intervals... More about our weather records

Advertising

Herten weather history for previous 24 hours

 ConditionsComfort  
Time TempWeatherWind HumidityBarometerVisibility
9:00 AM
Thu, Jul 2
84 °FSunny.6 mph44%30.05 "Hg12 mi
8:00 AM83 °FSunny.3 mph50%30.04 "Hg25 mi
7:00 AM79 °FSunny.5 mph54%30.04 "Hg19 mi
6:00 AM76 °FSunny.5 mph55%30.04 "Hg22 mi
5:00 AM77 °FClear.3 mph52%30.03 "Hg25 mi
4:00 AM78 °FClear.5 mph48%30.03 "Hg28 mi
3:00 AM79 °FClear.6 mph47%30.04 "Hg22 mi
2:00 AM79 °FClear.5 mph48%30.04 "Hg25 mi
1:00 AM80 °FClear.5 mph46%30.03 "Hg22 mi
12:00 AM78 °FClear.2 mph52%30.03 "Hg22 mi
11:00 PM
Wed, Jul 1
79 °FClear.2 mph50%30.03 "Hg22 mi
10:00 PM81 °FPassing clouds.5 mph45%30.02 "Hg25 mi
9:00 PM84 °FSunny.3 mph42%30.01 "Hg25 mi
8:00 PM88 °FSunny.3 mph34%30.00 "Hg31 mi
7:00 PM90 °FPassing clouds.5 mph30%30.00 "Hg22 mi
6:00 PM91 °FPartly sunny.5 mph25%30.01 "Hg31 mi
5:00 PM91 °FSunny.6 mph24%30.02 "Hg22 mi
4:00 PM90 °FScattered clouds.5 mph29%30.02 "Hg19 mi
3:00 PM89 °FPartly sunny.5 mph29%30.03 "Hg17 mi
2:00 PM89 °FPartly sunny.6 mph29%30.04 "Hg17 mi
1:00 PM87 °FPartly sunny.6 mph28%30.06 "Hg19 mi
12:00 PM87 °FSunny.5 mph33%30.06 "Hg14 mi
11:00 AM86 °FScattered clouds.5 mph37%30.07 "Hg19 mi
10:00 AM82 °FOvercast.3 mph42%30.08 "Hg25 mi
Weather by CustomWeather, © 2015

See weather overviewHow to use our weather pages